This demonstration page uses our WeatherBlox Daily Observations layout. Learn more.

Left ArrowRight Arrow

Hourly Observations for September 8, 2018

Temp ( °F °C ) Dew Point ( °F °C ) Humidity (%) Winds ( mph kmh ) Pressure ( in mb ) Visibility ( mi km ) Precip ( " mm )
12:53 am 00:53 Cloudy 70 21.1 68 20 93 93 ENE 5 7 30.09 1019 10 16 0.00 0.00
1:53 am 01:53 Cloudy 70 21.1 67 19.4 90 90 ENE 8 13 30.07 1018 10 16 0.00 0.00
2:53 am 02:53 Cloudy 70 21.1 67 19.4 90 90 ENE 7 11 30.05 1018 10 16 0.00 0.00
3:53 am 03:53 Cloudy 70 21.1 67 19.4 90 90 ENE 6 9 30.03 1017 10 16 0.00 0.00
4:53 am 04:53 Cloudy with Heavy Rain 68 20 66 18.9 93 93 NW 10 17 30.04 1017 3 4 0.16 4.06
5:04 am 05:04 Cloudy with Heavy Rain 68 20 66 18.9 93 93 NNW 6 9 30.06 1018 3 4 0.09 2.29
5:14 am 05:14 Cloudy with Heavy Rain 67 19.4 66 18.9 97 97 VRB 3 6 30.06 1018 2 3 0.20 5.08
5:20 am 05:20 Cloudy with Strong Thunderstorms 67 19.4 66 18.9 97 97 NNE 6 9 30.06 1018 2 3 0.25 6.35
5:35 am 05:35 Cloudy with Strong Thunderstorms 67 19.4 66 18.9 97 97 N 5 7 30.06 1018 2 3 0.39 9.91
5:45 am 05:45 Cloudy with Nearby Thunderstorms 67 19.4 66 18.9 97 97 NE 7 11 30.06 1018 4 6 0.42 10.67
5:53 am 05:53 Cloudy with Nearby Thunderstorms 67 19.4 66 18.9 97 97 NNE 7 11 30.03 1017 4 6 0.46 11.68
6:02 am 06:02 Cloudy with Heavy Rain 67 19.4 66 18.9 97 97 N 8 13 30.03 1017 4 6 0.04 1.02
6:53 am 06:53 Mostly Cloudy 67 19.4 65 18.3 93 93 NE 10 17 30.02 1017 10 16 0.07 1.78
7:05 am 07:05 Cloudy 67 19.4 65 18.3 93 93 NE 8 13 30.03 1017 10 16 0.00 0.00
7:53 am 07:53 Cloudy 68 20 65 18.3 90 90 VRB 5 7 30.04 1017 10 16 0.00 0.00
8:17 am 08:17 Cloudy 68 20 64 17.8 87 87 ENE 14 22 30.06 1018 10 16 0.00 0.00
8:53 am 08:53 Cloudy with Light Rain 67 19.4 63 17.2 87 87 ENE 9 15 30.05 1018 10 16 0.00 0.03
9:23 am 09:23 Cloudy 67 19.4 63 17.2 87 87 NE 10 17 30.06 1018 10 16 0.00 0.03
9:53 am 09:53 Cloudy with Light Rain 66 18.9 64 17.8 93 93 ENE 8 13 30.04 1017 10 16 0.03 0.76
10:13 am 10:13 Cloudy with Light Rain 67 19.4 64 17.8 91 91 ENE 8 13 30.06 1018 10 16 0.00 0.03
10:24 am 10:24 Cloudy with Light Rain 66 18.9 64 17.8 93 93 ENE 8 13 30.06 1018 10 16 0.01 0.25
10:53 am 10:53 Cloudy with Rain 66 18.9 64 17.8 93 93 NE 10 17 30.05 1018 5 8 0.03 0.76
11:53 am 11:53 Cloudy with Light Rain 65 18.3 62 16.7 90 90 NE 16 26 30.05 1018 10 16 0.02 0.51
12:53 pm 12:53 Cloudy with Rain 65 18.3 62 16.7 90 90 ENE 13 20 30.04 1017 5 8 0.09 2.29
1:46 pm 13:46 Cloudy with Heavy Rain 65 18.3 63 17.2 93 93 ENE 12 19 30.06 1018 2 3 0.15 3.81
1:53 pm 13:53 Cloudy with Heavy Rain 65 18.3 63 17.2 93 93 ENE 10 17 30.03 1017 2 3 0.19 4.83
2:17 pm 14:17 Cloudy with Heavy Rain 65 18.3 63 17.2 93 93 ENE 9 15 30.06 1018 3 4 0.09 2.29
2:34 pm 14:34 Cloudy with Heavy Rain 65 18.3 63 17.2 93 93 ENE 9 15 30.06 1018 2 2 0.22 5.59
2:45 pm 14:45 Cloudy with Heavy Rain 65 18.3 63 17.2 93 93 NE 10 17 30.03 1017 2 3 0.28 7.11
2:53 pm 14:53 Cloudy with Rain 64 17.8 63 17.2 96 96 NE 8 13 30.04 1017 3 4 0.31 7.87
3:01 pm 15:01 Cloudy with Rain 64 17.8 63 17.2 96 96 NE 7 11 30.03 1017 4 6 0.02 0.51
3:08 pm 15:08 Cloudy with Heavy Rain 64 17.8 63 17.2 96 96 ENE 10 17 30.03 1017 2 3 0.07 1.78
3:11 pm 15:11 Cloudy with Heavy Rain 64 17.8 63 17.2 96 96 NE 8 13 30.03 1017 2 3 0.09 2.29
3:13 pm 15:13 Cloudy with Heavy Rain 64 17.8 63 17.2 96 96 NE 8 13 30.03 1017 2 3 0.09 2.29
3:17 pm 15:17 Cloudy with Rain 64 17.8 62 16.7 93 93 NE 13 20 30.03 1017 3 5 0.10 2.54
3:31 pm 15:31 Cloudy with Rain 64 17.8 62 16.7 93 93 NE 10 17 30.03 1017 3 5 0.13 3.30
3:53 pm 15:53 Cloudy with Light Rain 64 17.8 62 16.7 93 93 ENE 10 17 30.01 1016 8 13 0.15 3.81
4:09 pm 16:09 Cloudy with Rain 64 17.8 62 16.7 93 93 ENE 13 20 30.03 1017 5 8 0.02 0.51
4:33 pm 16:33 Cloudy with Rain 63 17.2 61 16.1 93 93 ENE 10 17 30.03 1017 4 6 0.06 1.52
4:53 pm 16:53 Cloudy with Rain 63 17.2 61 16.1 93 93 NE 10 17 30.01 1016 4 6 0.09 2.29
5:08 pm 17:08 Cloudy with Rain 63 17.2 61 16.1 93 93 NE 12 19 30.00 1016 5 8 0.02 0.51
5:48 pm 17:48 Cloudy with Light Rain 64 18 63 17 94 94 ENE 8 13 30.00 1016 7 11 0.06 1.52
5:53 pm 17:53 Cloudy with Light Rain 64 17.8 62 16.7 93 93 ENE 12 19 29.98 1015 7 11 0.07 1.78
6:40 pm 18:40 Cloudy with Light Rain 64 17.8 62 16.7 93 93 ENE 17 28 29.97 1015 9 14 0.02 0.51
6:53 pm 18:53 Cloudy with Light Rain 64 17.8 62 16.7 93 93 E 13 20 29.98 1015 7 11 0.03 0.76
7:15 pm 19:15 Cloudy with Rain 64 17.8 61 16.1 90 90 E 13 20 30.00 1016 5 8 0.04 1.02
7:53 pm 19:53 Cloudy with Rain 63 17.2 61 16.1 93 93 ENE 9 15 29.96 1015 6 10 0.11 2.79
8:04 pm 20:04 Cloudy with Rain 63 17.2 62 16.7 97 97 E 14 22 29.97 1015 7 11 0.01 0.25
8:32 pm 20:32 Cloudy with Heavy Rain 63 17.2 61 16.1 93 93 E 15 24 29.97 1015 4 6 0.09 2.29
8:48 pm 20:48 Cloudy with Rain 63 17 61 16 94 94 E 12 19 29.97 1015 6 10 0.13 3.30
8:53 pm 20:53 Cloudy with Rain 63 17.2 61 16.1 93 93 E 10 17 29.95 1014 7 11 0.13 3.30
9:21 pm 21:21 Cloudy with Rain 63 17.2 61 16.1 93 93 E 12 19 29.94 1014 6 10 0.05 1.27
9:40 pm 21:40 Cloudy with Light Rain 63 17.2 61 16.1 93 93 E 13 20 29.94 1014 9 14 0.06 1.52
9:53 pm 21:53 Cloudy with Light Rain 63 17.2 61 16.1 93 93 E 20 31 29.94 1014 10 16 0.06 1.52
10:25 pm 22:25 Cloudy with Light Rain 62 16.7 60 15.6 93 93 ENE 16 26 29.94 1014 8 13 0.02 0.51
10:53 pm 22:53 Cloudy with Light Rain 62 16.7 60 15.6 93 93 E 18 30 29.92 1013 10 16 0.04 1.02
11:53 pm 23:53 Cloudy with Heavy Rain 61 16.1 59 15 93 93 E 12 19 29.93 1013 3 5 0.10 2.54

Powered by AerisWeather